METEOR 2-7 DEB, 36879

Orbit data source: Space-Track

METEOR 2-7 DEB, 36879 is space debris in LEO originally from a launch on Thu, 14 May 1981 UTC launched from the Plesetsk Missile And Space Complex (PKMTR). Debris objects in space refer to the collection of defunct objects orbiting the Earth. Examples of debris include non-operational satellites, rocket bodies, and fragments generated from explosions, collisions, or faulty payload assembly.

Loading next visibility...
Identifier
36879, 1981-043S
Orbit
LEO
Country
Flag of CISCIS
Related business
Manufacturer
Unknown
Mission
Spacecraft
Bus & Motor
Unknown
Mass
Unknown
Launch date (UTC)
1981-05-14 (45 years ago)
Launch vehicle
Unknown
Launch site
Plesetsk Missile And Space Complex (PKMTR)
Object type
Payload
Rocket body
Debris
Shape & HBR
Unknown shape, 0.1 m
Radar Cross Section
Small (<0.1 m²)

Expand to show TLE details & history
Last TLE update: 1 month ago

TLE from 1 month ago
0 METEOR 2-7 DEB
1 36879U 81043S   26047.46751309  .00036529  00000-0  50895-2 0  9997
2 36879  81.2265  61.5904 0017987  77.1698 283.1518 14.77460944638308
Epoch: 2026-02-16T11:13Z
TLE epoch observation values (Epoch: 2026-02-16T11:13:13.130Z)
Latitude
-0.00007°
Longitude
106.82424°
Altitude
637.491 km
Speed
7.541 km/s
True Right ascension
04h 06m 21s
True Declination
0° 00' 00"
Sunlit
Object was in daylight at epoch
Visualization orbit readout
Latitude
Unknown
Longitude
Unknown
Altitude
Unknown
Speed
Unknown
Apparent Right ascension
Unknown
Apparent Declination
Unknown
Sunlit
N/A
Visualization observer readout
Local Sidereal Time
00:54:45
Azimuth
Unknown
Elevation
Unknown
Doppler factor
Unknown
Orbital elements
Apogee altitude
647.049 km
Perigee altitude
621.822 km
Semi-major axis
7,012.573 km
Eccentricity
0.0018
Inclination
81.2265°
RAAN
61.5904°
Arg. of periapsis
77.1698°
True anomaly
282.95099°
Mean anomaly
283.1518°
Eccentric anomaly
283.0514°
Mean motion
3.69596 °/min
Orbital period
97.4 mins
BSTAR
0.0050895
Loading maneuver chart data...
Computing Atmospheric mass density...
Loading historical data...
Loading historical data...
Loading historical data...
Loading historical data...
Loading historical data...
Loading historical data...
Loading historical data...

Documentation

Showing up to 5 results
|